Powrót do katalogu

STARLINK-3134

AktywnyŁącznośćVLEO
NORAD 49434·PAYLOAD·🇺🇸 United States

Wystrzelony Nov 13, 2021 z Cape Canaveral Space Force Station

Loading…

Następne Przeloty (najbliższe 24 godziny)

TLE

ŚwieżeSource: CelesTrak SupGP

Epoka: Sep 14, 2026, 21:34 UTC

1 49434C 21104AC  26257.89909722  .00013884  00000+0  79961-3 0  2575
2 49434  53.2135  98.6748 0002519 100.9161  16.2445 15.11913010    17

Śledź STARLINK-3134 w czasie rzeczywistym z AllMySat

Download on the App Store